Location: Mountain View
(37.3861°N, 122.0839°W)
Time: 00:55:04
(UTC-07:00)

Envisat - Visible Passes

Search period start: 24 May 2017 00:00
Search period end: 03 June 2017 00:00
Orbit: 764 x 766 km, 98.2° (Epoch: 23 May)

Date Brightness Start Highest point End Pass type
(mag) Time Alt. Az. Time Alt. Az. Time Alt. Az.
24 May 5.1 22:14:14 10° SW 22:18:08 22° W 22:22:04 10° NW visible
25 May 3.7 21:36:20 10° S 21:41:15 51° W 21:46:12 10° NNW visible
26 May 3.0 20:59:31 10° SSE 21:04:33 69° ENE 21:09:37 10° N visible
26 May 5.6 22:42:10 10° WSW 22:44:00 12° W 22:45:52 10° WNW visible
27 May 4.7 22:02:39 10° SSW 22:06:59 28° W 22:11:20 10° NW visible
28 May 3.3 21:25:07 10° S 21:30:09 66° WSW 21:35:13 10° NNW visible
29 May 3.3 20:48:35 10° SSE 20:53:31 53° ENE 20:58:28 10° N visible
29 May 5.5 22:29:50 10° SW 22:32:49 16° W 22:35:49 10° NW visible
30 May 4.3 21:51:13 10° SSW 21:55:51 36° W 22:00:31 10° NNW visible
31 May 3.1 21:14:00 10° SSE 21:19:05 85° W 21:24:11 10° NNW visible
01 Jun 5.2 22:17:58 10° SW 22:21:39 20° W 22:25:21 10° NW visible
02 Jun 3.9 21:39:53 10° S 21:44:44 46° W 21:49:37 10° NNW visible
